User: anonymous   Login
Location: Unspecified
(0.0000°N, 0.0000°E)
Time: 07:06:06
(UTC+00:00)
Language:

Transit 2A - Orbit

View from above orbital plane
View from above orbital plane
View from above satellite
View from above satellite

Ground track
Ground track

The orbit data is extracted from the following two-line orbital elements,

1    45U 60007A   18351.18738950 -.00000061  00000-0  11810-4 0  9994
2    45  66.6952  25.6978 0256530 353.0688   6.6886 14.33620638 44116
Epoch (UTC): 17 December 2018 04:29:50
Eccentricity: 0.0256530
inclination: 66.6952°
perigee height: 596 km
apogee height: 963 km
right ascension of ascending node: 25.6978°
argument of perigee: 353.0688°
revolutions per day: 14.33620638
mean anomaly at epoch: 6.6886°
orbit number at epoch: 4411

The dashed part of the orbit path shows where the satellite is in the earth's shadow,  

DLR